Theta_e
317 318 319 319 319 320 320 319 321 322 322 322 321 321 321 321 320 320 320 319 319 319 318 318 319 320 322 312 311 324 342 338 328 318 317 313 311 312 310 313 314 313 315 318 318 317 318
316 317 317 318 319 319 319 319 319 319 321 321 322 321 321 321 320 320 320 318 317 317 317 318 319 321 318 307 316 322 326 329 325 321 317 316 312 313 312 312 312 314 316 316 316 317 319
315 315 316 317 318 319 319 319 319 319 319 319 320 321 321 321 320 320 320 318 317 317 318 318 320 322 314 312 318 322 320 318 321 320 316 318 317 312 313 310 314 313 309 313 315 316 316
314 315 316 318 318 318 318 318 318 318 318 319 319 320 320 321 321 320 319 318 317 317 318 319 323 322 309 319 321 318 319 317 315 318 316 317 320 314 312 312 310 309 310 309 317 314 317
314 314 315 316 316 317 317 317 317 318 318 318 318 317 319 320 320 320 318 317 317 318 318 322 322 319 308 317 315 319 321 315 316 314 317 316 319 313 311 307 306 307 305 309 311 314 318
314 314 314 315 315 315 316 316 316 317 318 317 317 317 317 319 319 318 316 315 316 316 322 324 322 311 313 310 315 316 318 317 314 311 312 313 314 309 308 306 300 303 304 308 309 313 317
314 314 314 313 313 313 314 315 316 316 317 317 317 317 316 317 318 316 316 314 311 311 314 309 310 309 310 314 316 314 318 315 315 310 306 311 307 304 307 308 308 306 306 307 311 312 310
313 313 313 313 313 312 314 314 314 315 316 317 316 316 316 317 318 316 314 311 310 311 303 310 311 311 314 315 308 312 318 312 311 305 308 307 303 309 309 307 306 305 305 305 309 310 310
312 312 312 312 312 313 313 313 313 314 315 316 315 315 315 317 316 316 308 311 313 313 306 307 311 309 310 313 308 309 314 314 310 306 306 305 306 309 306 305 304 305 304 305 305 308 309
312 312 312 312 312 313 312 312 312 313 314 314 315 315 314 315 314 315 309 313 313 313 302 303 305 310 311 312 306 313 315 314 311 306 308 307 309 305 305 304 306 303 307 305 304 304 301
311 312 312 312 312 312 312 311 312 313 313 313 313 315 314 315 315 315 309 315 313 316 290 303 304 313 310 308 308 308 315 314 309 308 308 305 307 305 303 304 307 304 307 306 306 304 305
311 311 311 312 312 312 312 311 312 312 313 313 312 314 314 317 318 318 317 316 313 298 289 300 304 303 303 306 306 309 309 315 315 309 310 308 311 309 307 308 308 308 307 306 306 305 299
310 311 311 312 312 312 311 311 312 312 312 312 311 312 313 317 314 320 320 308 297 292 301 298 301 303 302 302 303 305 304 305 305 302 303 306 307 309 310 306 308 309 307 300 298 298 299
311 311 311 312 312 311 311 311 311 311 311 311 311 311 313 315 321 319 317 299 291 297 298 302 302 303 300 302 303 304 303 302 308 307 304 301 298 306 310 308 306 307 308 302 296 297 300
310 310 311 311 312 311 311 311 311 311 311 310 310 315 315 317 320 319 308 292 293 298 302 301 302 300 301 302 302 304 303 303 306 309 303 302 301 309 309 311 311 307 305 310 304 306 302
310 310 310 311 311 311 311 311 311 312 312 311 312 311 313 317 320 314 302 294 297 301 304 304 298 301 299 300 299 303 303 306 306 310 313 307 301 307 308 311 311 309 311 303 305 297 296
309 309 310 310 311 311 311 311 311 312 312 310 311 306 311 318 315 306 295 297 300 301 301 302 301 300 300 300 301 302 303 306 309 309 312 310 307 305 308 306 306 307 306 307 308 305 299
309 309 309 310 311 311 311 311 311 312 310 310 311 301 314 316 300 302 296 298 299 301 302 301 305 303 302 302 301 301 302 306 311 312 307 311 309 303 304 311 312 311 308 309 302 302 304
308 309 309 310 311 312 311 311 311 311 309 314 307 305 313 310 294 295 299 298 300 300 301 300 302 304 306 302 300 302 304 309 311 311 309 312 307 303 304 309 311 308 309 310 311 311 305
308 309 309 311 312 312 312 311 311 312 310 309 305 297 302 301 301 295 294 294 297 301 301 303 303 305 304 302 305 303 304 308 309 312 317 315 310 307 301 304 309 307 307 309 310 304 304
308 308 309 311 312 312 312 311 310 311 310 312 305 300 301 293 295 297 298 295 295 296 302 303 299 299 301 300 303 303 306 307 309 313 313 313 306 308 309 310 309 308 307 307 307 308 304
307 308 309 311 312 312 312 311 310 311 310 309 302 301 300 300 299 298 295 295 295 297 299 299 298 301 303 301 302 300 304 308 309 311 310 314 306 308 307 310 310 307 308 308 309 309 309
307 309 310 311 312 312 312 311 310 311 309 307 310 311 305 296 297 295 297 297 297 300 301 302 302 300 299 302 306 308 310 311 313 312 310 312 309 307 303 309 310 306 310 311 314 316 314
308 309 310 311 312 311 311 311 310 312 310 311 312 310 296 292 296 297 299 298 298 300 299 303 303 301 303 309 311 310 314 315 314 315 315 311 311 308 306 309 299 312 318 318 314 317 320
307 309 310 311 311 311 311 311 310 313 311 310 312 305 299 292 296 296 300 301 302 304 301 302 306 309 312 309 302 306 309 310 311 313 314 318 312 306 305 303 307 310 315 316 314 314 321
307 308 310 311 311 310 310 311 311 312 312 310 310 311 301 294 299 302 298 304 302 302 303 303 308 314 312 304 303 301 302 305 304 307 315 315 318 308 306 300 298 311 319 322 320 310 323
307 308 309 311 310 309 310 310 310 312 312 310 309 312 303 296 301 304 301 303 307 303 302 304 306 309 310 300 296 300 305 309 303 303 306 308 309 305 304 303 308 317 320 321 306 313 325
307 308 309 311 310 312 311 311 311 312 312 310 308 313 305 300 304 305 306 309 309 309 304 308 305 308 306 298 297 308 307 310 308 309 308 306 305 304 307 303 301 320 318 312 320 327 325
306 308 309 310 310 312 312 313 313 312 312 311 304 313 313 304 303 309 311 316 315 317 314 314 311 310 308 302 304 312 308 312 311 304 314 307 314 309 313 311 321 323 323 325 328 325 323
Wind_Speed
13 13 14 14 13 11 11 11 11 10 7 8 9 11 12 13 15 17 19 19 19 18 17 15 16 17 13 11 5 7 5 7 9 6 9 10 11 12 13 11 7 12 6 8 8 9 11
15 16 16 15 13 12 10 10 11 10 9 9 8 9 10 13 13 15 17 19 21 20 18 15 14 13 8 14 5 2 2 7 8 10 8 9 6 7 10 8 13 5 12 10 7 10 11
15 16 17 17 14 13 12 11 11 11 11 11 12 10 8 11 14 15 17 19 21 21 18 17 12 6 9 14 0 4 4 3 5 8 8 9 3 9 1 10 6 8 10 12 12 10 8
15 16 17 18 18 15 14 14 12 12 11 11 12 12 11 11 12 16 18 21 24 22 20 13 7 7 9 1 3 8 8 8 6 7 5 6 6 8 8 2 6 12 11 13 12 7 6
14 14 15 16 16 18 15 15 14 12 11 11 11 12 13 12 13 15 19 24 25 17 8 4 7 7 11 8 8 5 6 8 11 8 6 7 9 7 8 11 9 10 13 18 11 7 4
15 15 15 15 15 15 16 14 15 14 12 12 12 12 13 14 13 15 19 26 14 7 5 5 4 7 10 5 5 4 4 9 8 13 10 11 10 11 12 13 13 13 15 8 11 8 11
15 15 16 16 17 16 15 16 15 14 13 12 12 13 13 13 12 15 17 9 7 9 8 12 1 9 1 3 5 8 8 12 10 15 14 15 12 15 15 15 13 6 10 11 11 7 5
16 16 17 17 18 17 16 15 15 16 14 12 12 13 14 14 11 16 11 4 5 6 10 14 18 19 19 7 6 12 10 15 14 16 17 10 17 14 5 6 11 12 13 14 6 5 8
15 15 15 16 16 15 16 16 15 14 14 13 11 12 14 13 12 9 6 6 6 6 9 10 19 20 20 18 14 13 16 18 17 19 18 16 4 12 11 12 13 13 14 13 10 7 8
14 14 15 14 14 14 16 16 16 15 14 13 12 11 13 15 7 6 1 3 8 6 8 7 8 9 13 13 14 21 18 15 14 19 18 16 13 6 16 16 14 14 11 9 11 11 11
14 15 14 14 14 14 14 16 16 15 14 12 13 11 11 6 8 4 6 8 10 5 8 8 10 5 7 19 8 21 20 17 18 15 15 14 13 15 14 14 12 10 2 11 13 13 14
15 15 15 15 15 15 15 14 15 15 12 11 12 11 11 4 5 6 8 10 5 8 10 5 8 11 13 19 10 17 24 17 16 16 15 11 5 14 14 10 11 6 7 6 8 11 11
14 15 16 16 16 16 16 14 15 14 12 12 12 10 9 6 4 9 9 5 8 10 4 7 6 10 15 13 18 18 26 25 16 19 16 17 13 10 9 14 13 12 12 9 10 9 5
14 15 15 15 15 16 15 14 15 13 11 12 10 7 5 6 5 8 6 7 12 2 15 3 6 5 12 12 19 20 27 26 24 19 14 17 17 20 15 15 14 18 16 9 11 12 10
15 15 16 17 16 16 15 15 16 15 12 11 9 4 5 4 8 6 7 12 9 12 9 10 13 13 11 14 10 17 23 25 25 21 11 17 12 22 14 16 15 15 14 13 4 1 7
15 15 16 16 15 16 16 16 17 17 11 6 3 4 2 2 6 6 6 16 16 3 12 13 12 3 7 16 13 19 20 24 25 22 14 8 13 13 18 11 11 9 16 11 10 9 11
14 15 16 16 16 16 16 16 17 16 4 4 3 5 7 5 3 7 11 14 17 15 9 9 11 10 3 7 12 20 20 10 24 23 18 8 10 10 17 15 16 10 11 10 6 5 8
15 15 16 17 16 15 14 14 16 6 6 5 2 3 3 6 6 5 9 7 7 17 12 11 12 8 7 7 8 10 18 10 19 22 22 11 7 14 21 7 7 18 15 15 9 11 7
15 16 16 17 16 16 14 11 14 4 8 2 2 3 5 3 6 8 11 12 17 19 22 9 8 4 8 8 3 6 9 12 18 22 20 13 7 11 9 9 7 11 7 7 3 4 7
15 15 16 17 16 15 14 9 12 6 6 4 3 2 2 2 4 5 10 13 18 15 22 18 9 10 13 10 4 2 7 4 9 20 12 12 5 12 11 15 17 12 12 12 12 8 8
16 16 17 17 16 15 15 8 8 6 6 6 3 1 2 3 8 12 11 12 18 18 19 16 18 17 15 9 6 9 9 5 6 8 15 13 9 10 3 5 8 13 15 14 15 14 9
16 17 18 17 16 16 13 8 5 9 6 5 3 3 1 6 8 10 12 13 19 17 20 20 20 12 9 9 7 11 12 8 6 8 14 15 11 9 5 5 10 9 8 9 5 7 4
16 18 18 17 16 16 12 9 5 11 11 5 2 1 1 3 6 7 11 17 13 16 15 19 14 18 21 17 16 14 13 14 13 7 17 15 9 12 10 9 11 11 9 8 6 2 7
16 17 18 18 18 16 12 10 7 13 15 3 1 1 1 4 5 9 11 16 19 16 19 7 17 16 14 10 14 18 17 12 14 15 12 15 13 11 7 9 16 8 4 1 3 5 5
16 17 18 19 17 13 10 11 7 11 14 5 2 1 1 5 7 16 12 16 15 15 19 15 11 2 3 8 8 9 6 7 11 14 15 13 15 6 7 13 6 7 7 9 11 8 6
17 18 18 18 12 7 4 8 6 9 12 4 2 2 2 3 5 4 14 19 13 13 13 18 17 4 5 3 3 7 8 13 10 11 11 15 15 11 10 15 10 7 12 6 4 9 10
17 18 18 16 10 5 5 8 6 10 10 4 2 4 1 4 11 9 7 12 4 6 9 11 13 8 5 2 3 8 6 3 14 16 15 14 16 16 11 12 7 7 12 9 10 7 15
16 17 17 15 9 9 8 10 9 11 12 4 2 5 3 4 12 14 15 15 9 7 9 7 9 5 3 3 3 8 5 4 6 9 17 14 13 10 9 8 7 14 11 6 6 14 14
15 16 15 14 11 8 8 8 7 11 10 7 4 3 5 6 8 9 14 20 17 11 5 6 7 8 2 4 10 6 6 4 11 9 2 10 4 8 5 4 8 14 8 9 10 14 12
Wind_Direction
6 2 357 353 344 334 335 339 328 319 316 319 317 323 326 322 321 324 324 325 323 320 315 320 314 318 315 299 281 100 140 162 191 184 199 198 216 222 226 223 202 235 222 246 252 283 288
6 5 4 359 352 338 332 334 336 336 329 316 309 308 315 318 318 319 319 319 316 309 315 312 310 307 270 287 89 102 127 185 212 208 203 210 228 228 271 236 224 181 244 252 264 272 281
6 4 4 2 355 350 346 339 336 335 332 326 318 303 310 311 316 315 313 310 304 306 307 304 300 258 265 267 171 154 213 235 209 222 207 216 246 210 169 222 219 233 243 221 233 254 278
5 3 3 3 2 1 357 348 337 335 333 327 322 313 310 313 312 314 314 308 300 305 302 294 246 220 268 112 249 241 217 217 203 206 235 195 217 236 239 43 207 226 229 237 213 217 218
8 4 4 5 3 358 353 353 348 331 332 333 327 321 309 309 312 315 312 301 298 297 288 230 203 244 266 122 221 188 206 220 180 177 169 168 207 231 188 222 208 207 235 212 171 200 210
8 7 6 6 6 2 357 351 347 342 333 333 329 325 319 307 313 318 310 289 290 269 213 225 259 246 222 224 141 200 207 196 172 163 164 186 206 213 217 211 219 210 220 215 229 169 218
6 5 4 4 5 3 358 358 351 345 337 332 331 326 319 310 318 323 317 288 223 194 216 248 351 255 207 208 213 196 172 191 185 183 190 194 209 214 210 216 256 277 247 246 202 120 253
3 2 1 360 358 357 355 355 353 352 343 328 332 330 322 317 324 318 285 346 49 357 292 266 249 250 260 281 267 206 184 191 195 200 202 177 221 219 245 205 220 225 229 226 205 207 262
357 356 356 355 352 349 351 350 349 348 347 338 334 329 328 319 329 283 331 64 354 316 263 262 232 236 229 212 228 214 200 208 202 207 196 214 185 200 209 202 214 219 232 231 242 161 226
350 349 349 348 344 343 345 346 345 344 343 340 331 331 329 323 283 351 55 38 335 311 272 217 201 231 205 196 224 221 201 198 206 209 201 227 151 194 208 221 216 225 210 249 237 229 237
346 344 343 340 340 341 342 343 344 343 338 331 331 327 332 353 324 295 18 325 324 238 270 105 142 93 174 196 137 191 196 207 209 203 189 197 208 203 201 217 205 245 165 236 229 227 247
344 343 342 339 337 338 338 338 338 338 335 326 327 327 328 199 237 336 321 313 247 225 241 169 148 180 176 211 214 150 183 207 226 200 212 212 198 214 206 184 201 187 192 186 216 222 219
341 341 340 336 336 336 334 332 332 330 327 322 325 323 300 312 351 335 310 257 213 247 76 172 206 186 208 181 207 184 180 192 189 194 199 214 184 191 222 189 181 201 189 183 200 197 241
338 337 335 332 335 332 330 326 322 316 311 309 316 301 192 229 279 309 284 229 235 15 245 39 282 246 213 192 208 194 187 190 207 201 188 201 201 203 184 221 186 202 205 238 211 204 157
333 333 333 333 330 327 328 324 317 313 304 295 300 252 252 252 223 266 236 213 246 272 350 302 290 255 198 200 201 194 199 198 195 196 214 196 223 182 208 202 225 181 222 250 276 6 215
329 330 332 330 327 327 326 323 323 319 307 281 280 279 268 164 183 236 232 238 221 259 323 322 276 328 264 191 203 198 192 202 191 199 204 195 204 191 184 196 220 248 204 201 230 174 218
324 327 330 327 326 323 323 324 326 320 305 209 245 253 64 88 182 221 236 233 235 254 285 308 332 301 330 326 231 197 186 183 188 192 202 170 237 170 167 203 187 185 208 233 260 302 231
320 324 327 325 319 314 315 321 330 345 127 180 295 226 79 154 224 233 246 242 281 253 245 265 295 304 312 329 253 243 211 177 185 189 194 178 234 172 199 172 294 206 211 200 220 176 252
316 320 322 317 314 313 311 319 330 223 201 240 263 56 104 287 239 229 263 267 244 248 243 248 253 291 321 323 283 252 238 192 191 187 191 167 212 178 158 168 184 216 211 212 247 303 169
314 318 318 314 314 313 313 307 325 234 237 288 266 217 187 170 226 311 300 257 250 230 256 245 253 283 281 323 333 255 191 72 228 188 169 175 191 239 200 197 185 186 193 204 209 228 235
313 317 315 314 312 307 307 290 319 222 210 276 230 254 322 195 233 236 252 284 258 237 236 236 238 250 268 297 317 53 22 326 176 178 175 194 207 216 4 119 184 203 201 200 220 232 241
312 314 312 310 309 303 297 269 286 225 210 262 286 285 69 298 287 255 229 245 249 231 240 232 237 261 236 245 305 322 332 340 292 186 198 206 212 209 158 183 169 164 173 186 189 152 152
311 311 310 307 302 298 289 247 245 203 205 222 218 191 41 264 264 228 228 233 256 262 244 240 258 232 252 268 292 301 287 273 265 298 194 185 178 197 170 181 163 164 152 148 117 139 161
312 312 311 308 303 292 266 233 221 198 207 308 56 349 205 272 266 263 269 239 245 254 261 251 221 248 268 300 295 280 270 246 227 229 246 199 192 206 150 166 206 90 143 96 151 144 98
314 315 314 312 308 296 242 210 216 195 206 248 132 128 270 278 276 287 269 268 260 247 253 266 259 208 303 274 286 291 183 163 193 206 203 234 187 185 159 206 110 158 177 176 178 154 161
315 320 319 316 320 330 226 194 207 206 194 213 180 129 198 277 270 256 303 280 244 238 237 236 248 206 253 237 312 268 184 167 168 166 202 198 236 189 198 207 205 109 146 166 183 174 176
318 323 323 320 315 336 210 212 221 198 194 193 212 144 236 262 262 292 274 316 228 238 237 211 213 200 221 135 282 266 245 224 168 177 174 186 202 200 186 201 106 133 144 164 212 95 151
318 323 325 326 311 303 225 231 231 189 192 180 235 174 221 255 274 261 266 265 250 226 236 172 181 168 120 102 273 234 265 184 159 151 172 175 192 193 187 194 172 160 148 219 82 130 145
316 321 323 325 315 336 225 226 191 184 194 185 263 184 216 244 280 317 280 276 276 286 287 225 324 109 121 117 245 286 235 201 163 145 357 174 268 135 335 78 121 137 100 117 131 136 137